When you browse on this site, cookies collect data to enhance your experience and personalize the content and advertising you see.
Visit our Privacy Policy to learn more. By continuing to use the site, you agree to this use of cookies and data.
  • In Hungary
  • List of Countries
  • For 7 days
  • Water Temperature
  • Satellite Maps
  • Weather Map
  • News
  • Weather Widgets
  • user-avatar
    Login

    Hourly Weather Rzeplin

    Today, 21 May, Tuesday

    Time Temperature Precipitation Wind Pressure Humidity
    00:00 +12°C° 0 mm 1 mps 719 mmHg 83%
    01:00 +12°C° 0 mm 1 mps 719 mmHg 83%
    02:00 +11°C° 0 mm 1 mps 719 mmHg 84%
    03:00 +11°C° 0 mm 1 mps 719 mmHg 85%
    04:00 +11°C° 0 mm 1 mps 719 mmHg 86%
    05:00 +12°C° 0 mm 1 mps 719 mmHg 82%
    06:00 +14°C° 0 mm 1 mps 719 mmHg 79%
    07:00 +16°C° 0 mm 1 mps 719 mmHg 75%
    08:00 +16°C° 0.2 mm 2 mps 719 mmHg 72%
    09:00 +17°C° 0.2 mm 2 mps 719 mmHg 70%
    10:00 +18°C° 0.2 mm 2 mps 719 mmHg 67%
    11:00 +18°C° 1 mm 2 mps 719 mmHg 69%
    12:00 +18°C° 1 mm 2 mps 719 mmHg 71%
    13:00 +18°C° 1 mm 2 mps 718 mmHg 73%
    14:00 +18°C° 0.9 mm 2 mps 718 mmHg 76%
    15:00 +17°C° 0.9 mm 2 mps 718 mmHg 78%
    16:00 +17°C° 0.9 mm 2 mps 718 mmHg 80%
    17:00 +16°C° 1 mm 3 mps 718 mmHg 83%
    18:00 +15°C° 1 mm 4 mps 717 mmHg 85%
    19:00 +14°C° 1 mm 5 mps 717 mmHg 87%
    20:00 +14°C° 1.3 mm 5 mps 717 mmHg 88%
    21:00 +14°C° 1.3 mm 6 mps 718 mmHg 89%
    22:00 +12°C° 1.3 mm 7 mps 718 mmHg 90%
    23:00 +12°C° 0.8 mm 7 mps 718 mmHg 91%

    Tomorrow, 22 May, Wednesday

    Time Temperature Precipitation Wind Pressure Humidity
    00:00 +12°C° 0.8 mm 7 mps 718 mmHg 92%
    01:00 +13°C° 0.8 mm 6 mps 718 mmHg 92%
    02:00 +11°C° 0.7 mm 6 mps 718 mmHg 92%
    03:00 +11°C° 0.7 mm 6 mps 718 mmHg 92%
    04:00 +11°C° 0.7 mm 6 mps 718 mmHg 92%
    05:00 +11°C° 0.5 mm 6 mps 718 mmHg 91%
    06:00 +13°C° 0.5 mm 6 mps 718 mmHg 91%
    07:00 +13°C° 0.5 mm 6 mps 718 mmHg 91%
    08:00 +13°C° 0.4 mm 6 mps 719 mmHg 91%
    09:00 +13°C° 0.4 mm 5 mps 719 mmHg 90%
    10:00 +14°C° 0.4 mm 4 mps 719 mmHg 90%
    11:00 +13°C° 1 mm 4 mps 719 mmHg 90%
    12:00 +13°C° 1 mm 3 mps 719 mmHg 91%
    13:00 +13°C° 1 mm 3 mps 719 mmHg 91%
    14:00 +14°C° 0.6 mm 3 mps 720 mmHg 90%
    15:00 +14°C° 0.6 mm 4 mps 720 mmHg 88%
    16:00 +15°C° 0.6 mm 4 mps 720 mmHg 87%
    17:00 +14°C° 1.5 mm 5 mps 720 mmHg 88%
    18:00 +14°C° 1.5 mm 6 mps 720 mmHg 90%
    19:00 +13°C° 1.5 mm 6 mps 720 mmHg 91%
    20:00 +13°C° 1.4 mm 6 mps 721 mmHg 92%
    21:00 +12°C° 1.4 mm 7 mps 721 mmHg 92%
    22:00 +12°C° 1.4 mm 7 mps 722 mmHg 93%
    23:00 +12°C° 0.5 mm 7 mps 722 mmHg 93%

    Day after tomorrow, 23 May, Thursday

    Time Temperature Precipitation Wind Pressure Humidity
    00:00 +13°C° 0.5 mm 6 mps 722 mmHg 94%
    01:00 +13°C° 0.5 mm 6 mps 722 mmHg 94%
    02:00 +13°C° 0.8 mm 6 mps 722 mmHg 95%
    03:00 +11°C° 0.8 mm 6 mps 723 mmHg 95%
    04:00 +12°C° 0.8 mm 5 mps 723 mmHg 95%
    05:00 +11°C° 1.5 mm 6 mps 723 mmHg 95%
    06:00 +11°C° 1.5 mm 6 mps 724 mmHg 95%
    07:00 +10°C° 1.5 mm 6 mps 724 mmHg 94%
    08:00 +10°C° 1.2 mm 6 mps 725 mmHg 94%
    09:00 +10°C° 1.2 mm 7 mps 725 mmHg 94%
    10:00 +9°C° 1.2 mm 7 mps 726 mmHg 93%
    11:00 +9°C° 0.2 mm 7 mps 726 mmHg 93%
    12:00 +9°C° 0.2 mm 7 mps 726 mmHg 92%
    13:00 +9°C° 0.2 mm 6 mps 726 mmHg 91%
    14:00 +9°C° 0 mm 6 mps 727 mmHg 90%
    15:00 +9°C° 0 mm 6 mps 727 mmHg 88%
    16:00 +9°C° 0 mm 6 mps 727 mmHg 86%
    17:00 +9°C° 0 mm 5 mps 727 mmHg 85%
    18:00 +10°C° 0 mm 4 mps 727 mmHg 84%
    19:00 +10°C° 0 mm 3 mps 727 mmHg 83%
    20:00 +9°C° 0 mm 3 mps 727 mmHg 83%
    21:00 +9°C° 0 mm 3 mps 727 mmHg 83%
    22:00 +9°C° 0 mm 3 mps 727 mmHg 83%
    23:00 +9°C° 0 mm 3 mps 727 mmHg 83%

    24 May, Friday

    Time Temperature Precipitation Wind Pressure Humidity
    00:00 +9°C° 0 mm 3 mps 727 mmHg 83%
    01:00 +9°C° 0 mm 3 mps 727 mmHg 82%
    02:00 +8°C° 0 mm 3 mps 727 mmHg 84%
    03:00 +8°C° 0 mm 3 mps 727 mmHg 85%
    04:00 +8°C° 0 mm 3 mps 726 mmHg 87%
    05:00 +9°C° 0 mm 3 mps 726 mmHg 82%
    06:00 +10°C° 0 mm 3 mps 726 mmHg 77%
    07:00 +11°C° 0 mm 3 mps 726 mmHg 73%
    08:00 +12°C° 0 mm 3 mps 726 mmHg 67%
    09:00 +13°C° 0 mm 3 mps 726 mmHg 61%
    10:00 +14°C° 0 mm 3 mps 726 mmHg 55%
    11:00 +16°C° 0 mm 3 mps 726 mmHg 53%
    12:00 +17°C° 0 mm 3 mps 725 mmHg 51%
    13:00 +18°C° 0 mm 3 mps 725 mmHg 48%
    14:00 +17°C° 0 mm 3 mps 725 mmHg 50%
    15:00 +17°C° 0 mm 3 mps 724 mmHg 51%
    16:00 +17°C° 0 mm 2 mps 724 mmHg 52%
    17:00 +16°C° 0 mm 2 mps 724 mmHg 58%
    18:00 +14°C° 0 mm 1 mps 723 mmHg 64%
    19:00 +13°C° 0 mm 1 mps 723 mmHg 70%
    20:00 +12°C° 0 mm 1 mps 723 mmHg 73%
    21:00 +11°C° 0 mm 1 mps 723 mmHg 75%
    22:00 +9°C° 0 mm 0 mps 723 mmHg 77%
    23:00 +8°C° 0 mm 0 mps 723 mmHg 79%

    25 May, Saturday

    Time Temperature Precipitation Wind Pressure Humidity
    00:00 +8°C° 0 mm 0 mps 723 mmHg 80%
    01:00 +7°C° 0 mm 0 mps 723 mmHg 82%
    02:00 +7°C° 0 mm 0 mps 723 mmHg 83%
    03:00 +7°C° 0 mm 0 mps 723 mmHg 83%
    04:00 +7°C° 0 mm 0 mps 723 mmHg 83%
    05:00 +10°C° 0 mm 1 mps 723 mmHg 79%
    06:00 +12°C° 0 mm 1 mps 723 mmHg 74%
    07:00 +14°C° 0 mm 1 mps 723 mmHg 69%
    08:00 +15°C° 0 mm 1 mps 723 mmHg 64%
    09:00 +18°C° 0 mm 1 mps 723 mmHg 59%
    10:00 +19°C° 0 mm 1 mps 723 mmHg 54%
    11:00 +20°C° 0 mm 1 mps 723 mmHg 52%
    12:00 +21°C° 0 mm 1 mps 723 mmHg 49%
    13:00 +22°C° 0 mm 1 mps 723 mmHg 47%
    14:00 +22°C° 0 mm 1 mps 723 mmHg 47%
    15:00 +22°C° 0 mm 1 mps 723 mmHg 47%
    16:00 +22°C° 0 mm 1 mps 723 mmHg 48%
    17:00 +21°C° 0 mm 1 mps 722 mmHg 55%
    18:00 +19°C° 0 mm 1 mps 722 mmHg 63%
    19:00 +17°C° 0 mm 2 mps 722 mmHg 71%
    20:00 +15°C° 0 mm 2 mps 723 mmHg 76%
    21:00 +14°C° 0 mm 2 mps 723 mmHg 82%
    22:00 +13°C° 0 mm 2 mps 723 mmHg 87%
    23:00 +12°C° 0 mm 3 mps 723 mmHg 90%

    26 May, Sunday

    Time Temperature Precipitation Wind Pressure Humidity
    00:00 +11°C° 0 mm 3 mps 723 mmHg 93%
    01:00 +11°C° 0 mm 3 mps 724 mmHg 96%
    02:00 +11°C° 0.1 mm 3 mps 724 mmHg 95%
    03:00 +11°C° 0.1 mm 3 mps 724 mmHg 95%
    04:00 +11°C° 0.1 mm 3 mps 724 mmHg 94%
    05:00 +11°C° 0.1 mm 3 mps 724 mmHg 93%
    06:00 +11°C° 0.1 mm 3 mps 725 mmHg 92%
    07:00 +12°C° 0.1 mm 2 mps 725 mmHg 91%
    08:00 +12°C° 0.1 mm 3 mps 725 mmHg 85%
    09:00 +13°C° 0.1 mm 3 mps 725 mmHg 79%
    10:00 +14°C° 0.1 mm 3 mps 726 mmHg 74%
    11:00 +14°C° 0.1 mm 3 mps 726 mmHg 71%
    12:00 +16°C° 0.1 mm 3 mps 726 mmHg 68%
    13:00 +16°C° 0.1 mm 3 mps 726 mmHg 65%
    14:00 +16°C° 0 mm 2 mps 726 mmHg 66%
    15:00 +16°C° 0 mm 2 mps 725 mmHg 67%
    16:00 +16°C° 0 mm 2 mps 725 mmHg 68%
    17:00 +15°C° 0 mm 2 mps 725 mmHg 69%
    18:00 +14°C° 0 mm 1 mps 725 mmHg 71%
    19:00 +13°C° 0 mm 1 mps 725 mmHg 72%
    20:00 +12°C° 0 mm 1 mps 725 mmHg 75%
    21:00 +10°C° 0 mm 2 mps 725 mmHg 77%
    22:00 +9°C° 0 mm 2 mps 726 mmHg 79%
    23:00 +9°C° 0 mm 2 mps 726 mmHg 81%
    Show more